Location: Kosice
(0.0000°N, 21.2500°E)
Time: 04:24:00
(UTC+01:00)

ARGOS - Pass Details

Date: 24 January 2021
Orbit: 821 x 834 km, 98.4° (Epoch: 04 March)

Event Time Altitude Azimuth Distance (km) Brightness Sun altitude
Rises 18:42:15 0° 156° (SSE) 3,351 6.3 -13.0°
Reaches altitude 10° 18:44:42 10° 149° (SSE) 2,415 5.5 -13.6°
Maximum altitude 18:49:46 44° 78° (ENE) 1,116 3.4 -14.8°
Drops below altitude 10° 18:54:49 10° 6° (N) 2,407 5.3 -16.0°
Sets 18:57:14 0° 0° (N) 3,338 6.1 -16.5°
